KJ5EHN Weather Reports


time (UTC)temp
C
wind
direction
speed
KPH
gust
KPH
rain 1hr
cm
rain 24hr
cm
rain mn
cm
humidity
%
barometer
mb
20260509090907 20 44 3.2 6.4 0.00 0.00 0.00 93 1008.2
20260509090404 20 286 6.4 11.3 0.00 0.00 0.00 92 1008.5
20260509085901 20 195 3.2 9.7 0.00 0.00 0.00 92 1008.8
20260509085358 20 47 1.6 3.2 0.00 0.00 0.00 92 1009.0
20260509084854 20 77 1.6 4.8 0.00 0.00 0.00 92 1009.2
20260509084351 20 181 4.8 4.8 0.00 0.00 0.00 92 1009.1
20260509083849 20 46 3.2 9.7 0.00 0.00 0.00 92 1008.8
20260509083346 20 27 1.6 3.2 0.00 0.00 0.00 92 1008.6
20260509082842 20 97 1.6 3.2 0.00 0.00 0.00 92 1008.6
20260509082339 20 34 4.8 4.8 0.00 0.00 0.00 92 1008.5
20260509081837 20 39 1.6 4.8 0.00 0.00 0.00 92 1008.5
20260509081333 20 3 4.8 9.7 0.00 0.00 0.00 92 1008.8
20260509080832 20 15 3.2 6.4 0.00 0.00 0.00 92 1008.9
20260509080329 20 358 0.0 4.8 0.00 0.00 0.00 92 1009.2
20260509075827 20 23 1.6 3.2 0.00 0.00 0.00 92 1009.3
20260509075324 20 33 1.6 3.2 0.00 0.00 0.00 92 1009.7
20260509074821 20 43 1.6 6.4 0.00 0.00 0.00 91 1009.8
20260509074319 20 48 1.6 3.2 0.00 0.00 0.00 91 1009.8
20260509073815 20 71 3.2 4.8 0.00 0.00 0.00 91 1009.8
20260509073311 20 28 1.6 3.2 0.00 0.00 0.00 91 1009.4
20260509072808 20 112 4.8 6.4 0.00 0.00 0.00 91 1009.6
20260509072306 20 36 1.6 4.8 0.00 0.00 0.00 90 1010.0
20260509071801 20 28 1.6 3.2 0.00 0.00 0.00 90 1010.1
20260509071258 20 71 0.0 1.6 0.00 0.00 0.00 90 1010.2
20260509070755 20 61 1.6 3.2 0.00 0.00 0.00 90 1010.2
20260509070252 20 17 1.6 3.2 0.00 0.00 0.00 90 1010.2
20260509065748 20 22 0.0 3.2 0.00 0.00 0.00 90 1010.4
20260509065245 20 359 0.0 1.6 0.00 0.00 0.00 90 1010.4
20260509064741 20 71 0.0 3.2 0.00 0.00 0.00 89 1010.7
20260509064238 20 80 0.0 1.6 0.00 0.00 0.00 90 1010.7
20260509063736 20 79 0.0 1.6 0.00 0.00 0.00 89 1010.9
20260509063232 20 91 1.6 4.8 0.00 0.00 0.00 89 1010.9
20260509062729 20 141 1.6 4.8 0.00 0.00 0.00 89 1010.8
20260509062226 20 107 1.6 3.2 0.00 0.00 0.00 89 1010.9
20260509061723 20 211 1.6 4.8 0.00 0.00 0.00 90 1010.8
20260509061221 20 238 3.2 4.8 0.00 0.00 0.00 91 1011.1
20260509060718 20 213 1.6 3.2 0.00 0.00 0.00 91 1010.7
20260509060214 20 86 0.0 1.6 0.00 0.00 0.00 91 1010.0
20260509055710 19 86 0.0 3.2 0.00 0.00 0.00 91 1009.5
20260509055206 19 86 1.6 4.8 0.00 0.00 0.00 92 1009.3
20260509054703 19 33 1.6 6.4 0.00 0.00 0.00 91 1009.3
20260509054200 20 135 4.8 9.7 0.00 0.00 0.00 91 1009.4
20260509053659 20 188 3.2 6.4 0.00 0.00 0.00 90 1009.6
20260509053155 20 275 0.0 3.2 0.00 0.00 0.00 89 1009.9
20260509052653 20 272 3.2 4.8 0.00 0.00 0.00 89 1009.7
20260509052150 20 237 1.6 3.2 0.00 0.00 0.00 89 1009.7
20260509051648 20 236 1.6 4.8 0.00 0.00 0.00 88 1010.3
20260509051145 20 257 1.6 3.2 0.00 0.00 0.00 88 1010.3
20260509050642 20 257 1.6 4.8 0.00 0.00 0.00 88 1010.0
20260509050139 20 269 1.6 1.6 0.00 0.00 0.00 88 1010.4
20260509045636 20 234 3.2 4.8 0.00 0.64 0.64 88 1010.3
20260509045133 20 266 1.6 1.6 0.00 0.64 0.64 88 1010.3
20260509044630 20 291 0.0 3.2 0.00 0.64 0.64 88 1010.3
20260509044128 20 265 1.6 3.2 0.00 0.64 0.64 88 1010.7
20260509043624 20 311 3.2 6.4 0.00 0.64 0.64 87 1010.4
20260509043119 20 241 3.2 6.4 0.00 0.64 0.64 87 1010.0
20260509042616 20 247 3.2 4.8 0.00 0.64 0.64 87 1010.3
20260509042112 20 240 1.6 3.2 0.00 0.64 0.64 86 1010.2
20260509041609 20 223 0.0 1.6 0.00 0.64 0.64 86 1010.1
20260509041107 20 223 0.0 0.0 0.00 0.64 0.64 85 1010.0
20260509040605 20 154 1.6 1.6 0.00 0.64 0.64 85 1009.8
20260509040101 20 234 0.0 0.0 0.00 0.64 0.64 85 1009.9
20260509035558 20 234 0.0 6.4 0.00 0.64 0.64 84 1009.7
20260509035055 20 186 0.0 4.8 0.00 0.64 0.64 84 1009.8
20260509034553 20 266 1.6 3.2 0.00 0.64 0.64 84 1010.0
20260509034050 21 226 1.6 3.2 0.00 0.64 0.64 83 1009.8
20260509033547 21 93 4.8 4.8 0.00 0.64 0.64 83 1009.7
20260509033044 21 203 3.2 3.2 0.00 0.64 0.64 83 1009.7
20260509032541 21 280 1.6 6.4 0.00 0.64 0.64 83 1009.7
20260509032038 21 206 1.6 3.2 0.00 0.64 0.64 82 1009.6
20260509031536 21 119 1.6 3.2 0.00 0.64 0.64 82 1009.2
20260509031033 21 357 1.6 4.8 0.00 0.64 0.64 82 1008.9
20260509030531 21 152 1.6 6.4 0.00 0.64 0.64 82 1009.1
20260509030027 21 199 0.0 4.8 0.00 0.64 0.64 82 1009.3
20260509025523 21 225 1.6 3.2 0.00 0.64 0.64 81 1009.7
20260509025019 21 132 0.0 0.0 0.00 0.64 0.64 81 1010.0
20260509024515 21 132 1.6 1.6 0.00 0.64 0.64 80 1010.3
20260509024012 21 132 0.0 1.6 0.00 0.64 0.64 79 1010.5
20260509023509 21 132 0.0 1.6 0.00 0.64 0.64 79 1010.3
20260509023006 21 132 0.0 0.0 0.00 0.64 0.64 80 1010.1
20260509022502 21 6 0.0 0.0 0.00 0.64 0.64 80 1009.8
20260509022000 21 6 0.0 0.0 0.00 0.64 0.64 79 1009.9
20260509021457 21 347 0.0 0.0 0.00 0.64 0.64 79 1009.5
20260509020954 21 73 0.0 1.6 0.00 0.64 0.64 79 1009.3
20260509020453 21 73 0.0 1.6 0.00 0.64 0.64 79 1009.4
20260509015949 21 49 0.0 1.6 0.00 0.64 0.64 79 1009.3
20260509015448 21 51 0.0 1.6 0.00 0.64 0.64 79 1009.2
20260509014944 21 225 0.0 1.6 0.00 0.64 0.64 78 1008.8
20260509014441 21 24 0.0 1.6 0.00 0.64 0.64 78 1009.0
20260509013937 22 356 0.0 6.4 0.00 0.64 0.64 77 1008.6
20260509013434 22 175 4.8 6.4 0.00 0.64 0.64 77 1008.6
20260509012930 22 322 0.0 4.8 0.00 0.64 0.64 76 1008.8
20260509012427 22 140 1.6 3.2 0.00 0.64 0.64 76 1008.5
20260509011924 22 222 3.2 6.4 0.00 0.64 0.64 75 1008.4
20260509011421 22 261 1.6 4.8 0.00 0.64 0.64 75 1008.2
20260509010919 22 308 0.0 1.6 0.00 0.64 0.64 74 1008.3
20260509010416 22 328 4.8 6.4 0.00 0.64 0.64 74 1008.4
20260509005913 22 179 1.6 4.8 0.00 0.64 0.64 74 1008.4
20260509005411 23 36 1.6 3.2 0.00 0.64 0.64 74 1008.6
20260509004911 23 213 3.2 12.9 0.00 0.64 0.64 74 1008.5
20260509004408 23 241 3.2 12.9 0.00 0.64 0.64 74 1008.6
20260509003905 23 314 1.6 6.4 0.00 0.64 0.64 73 1008.6
20260509003403 23 342 1.6 3.2 0.00 0.64 0.64 72 1008.5
20260509002900 23 305 3.2 4.8 0.00 0.64 0.64 72 1008.4
20260509002358 23 6 3.2 9.7 0.00 0.64 0.64 73 1008.2
20260509001855 23 206 4.8 11.3 0.00 0.64 0.64 72 1008.1
20260509001351 23 280 3.2 9.7 0.00 0.64 0.64 72 1008.2
20260509000848 24 326 3.2 12.9 0.00 0.64 0.64 71 1008.2
20260509000348 24 56 1.6 12.9 0.00 0.64 0.64 71 1007.9
20260508235842 24 76 0.0 9.7 0.00 0.64 0.64 70 1008.0
20260508235339 25 214 6.4 11.3 0.00 0.64 0.64 68 1007.9
20260508234836 25 329 1.6 9.7 0.00 0.64 0.64 68 1007.9
20260508234332 25 104 6.4 9.7 0.00 0.64 0.64 68 1008.0
20260508233831 25 314 3.2 6.4 0.00 0.64 0.64 68 1008.1
20260508233330 25 15 3.2 12.9 0.00 0.64 0.64 68 1008.2
20260508232827 25 51 3.2 11.3 0.00 0.64 0.64 67 1008.2
20260508232323 25 103 4.8 9.7 0.00 0.64 0.64 68 1008.2
20260508231822 25 50 1.6 4.8 0.00 0.64 0.64 66 1008.1
20260508231317 25 7 4.8 11.3 0.00 0.64 0.64 65 1008.4
20260508230814 26 166 3.2 9.7 0.00 0.64 0.64 63 1008.4
20260508230311 26 289 3.2 6.4 0.00 0.64 0.64 62 1008.4
20260508225809 26 241 1.6 9.7 0.00 0.64 0.64 61 1008.3
20260508225306 26 6 0.0 4.8 0.00 0.64 0.64 63 1008.2
20260508224803 26 121 3.2 9.7 0.00 0.64 0.64 60 1008.4
20260508224300 27 63 1.6 6.4 0.00 0.64 0.64 60 1008.4
20260508223757 26 80 3.2 6.4 0.00 0.64 0.64 60 1008.5
20260508223255 26 15 1.6 3.2 0.00 0.64 0.64 63 1008.3
20260508222752 25 163 1.6 9.7 0.00 0.64 0.64 63 1008.2
20260508222249 26 313 3.2 6.4 0.00 0.64 0.64 63 1008.3
20260508221746 25 81 1.6 6.4 0.00 0.64 0.64 63 1008.3
20260508221241 26 338 3.2 6.4 0.00 0.64 0.64 63 1008.3
20260508220737 26 55 1.6 3.2 0.00 0.64 0.64 63 1008.4
20260508220234 26 71 3.2 6.4 0.00 0.64 0.64 63 1008.1
20260508215731 26 325 3.2 11.3 0.00 0.64 0.64 63 1008.2
20260508215227 26 135 4.8 6.4 0.00 0.64 0.64 63 1008.2
20260508214725 26 153 4.8 9.7 0.00 0.64 0.64 64 1008.5
20260508214222 25 77 1.6 6.4 0.00 0.64 0.64 65 1008.3
20260508213718 26 25 3.2 6.4 0.00 0.64 0.64 63 1008.4
20260508213215 25 259 4.8 12.9 0.00 0.64 0.64 64 1008.6
20260508212711 25 230 3.2 11.3 0.00 0.64 0.64 64 1008.7
20260508212208 26 147 3.2 6.4 0.00 0.64 0.64 62 1008.8
20260508211703 26 39 4.8 6.4 0.00 0.64 0.64 63 1008.9
20260508211159 26 300 3.2 6.4 0.00 0.64 0.64 62 1009.0
20260508210657 25 221 1.6 12.9 0.00 0.64 0.64 63 1009.1
20260508210154 26 342 4.8 9.7 0.00 0.64 0.64 61 1009.1
20260508205651 26 274 4.8 6.4 0.00 0.64 0.64 60 1009.3
20260508205147 27 226 3.2 9.7 0.00 0.64 0.64 59 1009.5
20260508204643 27 261 3.2 16.1 0.00 0.64 0.64 58 1009.6
20260508204140 26 279 3.2 12.9 0.00 0.64 0.64 58 1009.6
20260508203636 26 52 4.8 11.3 0.00 0.64 0.64 57 1009.7
20260508203132 26 309 3.2 11.3 0.00 0.64 0.64 59 1009.6
20260508202629 26 188 6.4 11.3 0.00 0.64 0.64 57 1010.0
20260508202126 26 329 4.8 9.7 0.00 0.64 0.64 58 1009.9
20260508201622 25 209 4.8 12.9 0.00 0.64 0.64 59 1010.1
20260508201119 26 63 4.8 12.9 0.00 0.64 0.64 59 1010.2
20260508200616 26 302 1.6 6.4 0.00 0.64 0.64 59 1010.5
20260508200112 26 282 6.4 9.7 0.00 0.64 0.64 59 1010.4
20260508195609 26 322 3.2 14.5 0.00 0.64 0.64 59 1010.3
20260508195105 26 110 4.8 9.7 0.00 0.64 0.64 61 1010.4
20260508194602 25 298 1.6 4.8 0.00 0.64 0.64 60 1010.7
20260508194059 25 189 1.6 6.4 0.00 0.64 0.64 59 1010.8
20260508193555 25 196 1.6 3.2 0.00 0.64 0.64 58 1010.9
20260508193052 25 327 0.0 11.3 0.00 0.64 0.64 58 1010.8
20260508192549 25 120 3.2 4.8 0.00 0.64 0.64 59 1010.8
20260508192046 26 96 3.2 4.8 0.00 0.64 0.64 59 1010.7
20260508191543 25 114 0.0 4.8 0.00 0.64 0.64 60 1010.6
20260508191039 25 279 1.6 4.8 0.00 0.64 0.64 62 1010.7
20260508190537 26 228 4.8 9.7 0.00 0.64 0.64 59 1010.9
20260508190033 26 333 1.6 4.8 0.00 0.64 0.64 59 1010.8
20260508185531 25 276 3.2 3.2 0.00 0.64 0.64 62 1010.8
20260508185028 25 93 3.2 3.2 0.00 0.64 0.64 62 1011.1
20260508184525 25 113 4.8 11.3 0.00 0.64 0.64 60 1011.1
20260508184022 25 250 1.6 3.2 0.00 0.64 0.64 63 1011.0
20260508183519 25 103 6.4 9.7 0.00 0.64 0.64 61 1011.2
20260508183014 25 75 1.6 4.8 0.00 0.64 0.64 61 1011.3
20260508182511 26 60 3.2 4.8 0.00 0.64 0.64 62 1011.3
20260508182007 25 130 1.6 6.4 0.00 0.64 0.64 64 1011.4
20260508181503 25 277 3.2 4.8 0.00 0.64 0.64 65 1011.5
20260508181001 24 273 3.2 6.4 0.00 0.64 0.64 62 1011.5
20260508180457 24 288 0.0 4.8 0.00 0.64 0.64 65 1011.6
20260508175953 23 56 0.0 6.4 0.00 0.64 0.64 65 1011.7
20260508175450 24 9 3.2 4.8 0.00 0.64 0.64 62 1011.9
20260508174948 24 201 1.6 6.4 0.00 0.64 0.64 65 1012.1
20260508174445 24 250 1.6 3.2 0.00 0.64 0.64 63 1012.4
20260508173942 23 297 1.6 11.3 0.00 0.64 0.64 66 1012.5
20260508173439 23 10 1.6 12.9 0.00 0.64 0.64 64 1012.7
20260508172934 22 155 0.0 6.4 0.00 0.64 0.64 66 1012.8
20260508172432 23 111 4.8 11.3 0.00 0.64 0.64 64 1012.8
20260508171928 23 52 1.6 6.4 0.00 0.64 0.64 66 1013.0
20260508171425 23 243 3.2 4.8 0.00 0.64 0.64 66 1013.3
20260508170922 22 331 8.0 16.1 0.00 0.64 0.64 65 1013.3
20260508170419 22 103 3.2 11.3 0.00 0.64 0.64 66 1013.4
20260508165915 22 48 1.6 6.4 0.00 0.64 0.64 68 1013.3
20260508165414 21 40 3.2 9.7 0.00 0.64 0.64 71 1013.7
20260508164909 22 43 3.2 6.4 0.00 0.64 0.64 68 1013.6
20260508164407 21 308 1.6 9.7 0.00 0.64 0.64 70 1013.8
20260508163904 21 216 3.2 6.4 0.00 0.64 0.64 70 1013.8
20260508163402 21 346 1.6 4.8 0.00 0.64 0.64 74 1013.9
20260508162856 20 308 3.2 3.2 0.00 0.64 0.64 74 1013.8
20260508162354 21 69 3.2 6.4 0.00 0.64 0.64 72 1013.8
20260508161851 21 231 1.6 6.4 0.00 0.64 0.64 72 1013.8
20260508161348 21 219 4.8 6.4 0.00 0.64 0.64 72 1013.8
20260508160845 20 272 3.2 4.8 0.00 0.64 0.64 75 1013.8
20260508160344 21 236 1.6 6.4 0.00 0.64 0.64 75 1013.8
20260508155840 20 342 0.0 4.8 0.00 0.64 0.64 76 1013.9
20260508155338 20 13 1.6 6.4 0.00 0.64 0.64 73 1013.9
20260508154834 20 299 1.6 3.2 0.00 0.64 0.64 75 1014.0
20260508154332 20 253 1.6 6.4 0.00 0.64 0.64 73 1013.8
20260508153828 20 12 1.6 9.7 0.00 0.64 0.64 77 1013.7
20260508153326 20 212 3.2 6.4 0.00 0.64 0.64 78 1013.9
20260508152821 20 309 1.6 4.8 0.00 0.64 0.64 78 1014.2
20260508152318 19 142 1.6 4.8 0.00 0.64 0.64 82 1014.0
20260508151814 19 49 1.6 1.6 0.00 0.64 0.64 84 1014.3
20260508151311 18 86 0.0 1.6 0.00 0.64 0.64 87 1014.5
20260508150808 17 90 1.6 4.8 0.00 0.64 0.64 86 1014.6
20260508150305 18 63 1.6 4.8 0.00 0.64 0.64 85 1014.4
20260508145802 18 330 1.6 4.8 0.00 0.64 0.64 86 1014.7
20260508145257 17 192 1.6 1.6 0.00 0.64 0.64 88 1014.4
20260508144754 17 189 1.6 3.2 0.00 0.64 0.64 87 1014.4
20260508144252 17 251 1.6 6.4 0.00 0.64 0.64 87 1014.6
20260508143749 18 17 1.6 6.4 0.00 0.64 0.64 86 1014.2
20260508143246 17 295 1.6 4.8 0.00 0.64 0.64 90 1014.2
20260508142742 17 63 1.6 3.2 0.00 0.64 0.64 90 1014.1
20260508142239 17 237 1.6 6.4 0.00 0.64 0.64 89 1014.3
20260508141736 18 190 3.2 4.8 0.00 0.64 0.64 91 1014.3
20260508141233 17 53 0.0 1.6 0.00 0.64 0.64 92 1014.6
20260508140730 16 127 0.0 0.0 0.00 0.64 0.64 94 1014.6
20260508140227 16 8 0.0 0.0 0.00 0.64 0.64 96 1014.7
20260508135723 16 354 0.0 0.0 0.00 0.64 0.64 96 1014.7
20260508135219 16 308 0.0 1.6 0.18 0.64 0.64 96 1015.0
20260508134715 15 308 0.0 0.0 1.27 0.64 0.64 96 1014.8
20260508134213 15 306 0.0 1.6 1.19 0.61 0.61 95 1014.9
20260508133709 15 353 0.0 1.6 0.00 0.41 0.41 95 1014.9
20260508133207 15 269 1.6 1.6 0.00 0.41 0.41 96 1014.7
20260508132705 15 322 0.0 3.2 0.48 0.41 0.41 95 1014.5
20260508132202 15 86 0.0 3.2 1.68 0.41 0.41 95 1014.3
20260508131657 15 161 1.6 3.2 1.07 0.30 0.30 94 1014.4
20260508131154 15 266 0.0 1.6 0.00 0.13 0.13 92 1015.1
20260508130650 15 174 0.0 1.6 0.00 0.13 0.13 93 1014.8
20260508130148 15 301 0.0 3.2 0.00 0.13 0.13 94 1014.6
20260508125643 15 335 0.0 1.6 0.00 0.13 0.13 94 1014.8
20260508125140 15 317 0.0 1.6 0.18 0.13 0.13 94 1014.8
20260508124638 15 279 0.0 1.6 0.18 0.13 0.13 94 1014.4
20260508124135 15 73 1.6 4.8 0.00 0.10 0.10 93 1014.4
20260508123633 15 138 1.6 3.2 0.13 0.10 0.10 93 1014.9
20260508123131 15 330 1.6 3.2 0.18 0.08 0.08 93 1015.2
20260508122626 15 340 0.0 3.2 0.48 0.08 0.08 92 1014.9
20260508122124 15 299 3.2 4.8 0.18 0.03 0.03 91 1015.7
20260508121622 15 177 0.0 1.6 0.00 0.00 0.00 91 1015.0
20260508121120 15 328 0.0 4.8 0.00 0.00 0.00 91 1015.0
20260508120617 15 270 1.6 1.6 0.00 0.00 0.00 91 1014.8
20260508120115 15 133 1.6 1.6 0.00 0.00 0.00 91 1014.3
20260508115612 15 295 1.6 3.2 0.00 0.00 0.00 91 1014.9
20260508115109 15 136 1.6 3.2 0.00 0.00 0.00 91 1015.0
20260508114606 15 280 1.6 3.2 0.00 0.00 0.00 92 1014.7
20260508114102 15 202 1.6 1.6 0.00 0.00 0.00 92 1014.7
20260508113559 15 230 0.0 0.0 0.00 0.00 0.00 92 1014.6
20260508113058 15 354 0.0 3.2 0.00 0.00 0.00 92 1014.4
20260508112553 15 295 0.0 1.6 0.00 0.00 0.00 92 1014.0
20260508112050 15 241 1.6 3.2 0.00 0.00 0.00 92 1013.9
20260508111547 15 206 3.2 4.8 0.00 0.00 0.00 93 1014.3
20260508111044 15 282 1.6 3.2 0.00 0.00 0.00 93 1014.6
20260508110543 15 258 0.0 3.2 0.00 0.00 0.00 92 1014.4
20260508110039 15 149 1.6 3.2 0.00 0.00 0.00 92 1014.4
20260508105539 15 267 1.6 3.2 0.00 0.00 0.00 91 1014.3
20260508105036 15 53 0.0 3.2 0.00 0.00 0.00 91 1013.9
20260508104534 15 19 0.0 4.8 0.00 0.00 0.00 90 1014.0
20260508104030 15 301 3.2 3.2 0.00 0.00 0.00 91 1015.0
20260508103527 15 257 3.2 4.8 0.00 0.00 0.00 92 1014.4
20260508103025 15 146 0.0 1.6 0.00 0.00 0.00 92 1014.1
20260508102523 15 145 0.0 0.0 0.00 0.00 0.00 92 1013.8
20260508102020 14 146 0.0 1.6 0.00 0.00 0.00 92 1013.9
20260508101517 14 145 0.0 0.0 0.00 0.00 0.00 92 1014.0
20260508101014 14 145 0.0 0.0 0.00 0.00 0.00 92 1013.6
20260508100513 14 145 0.0 0.0 0.00 0.00 0.00 92 1013.5
20260508100009 14 145 0.0 0.0 0.00 0.00 0.00 91 1013.7
20260508095506 14 145 0.0 1.6 0.00 0.00 0.00 91 1013.3
20260508095003 14 146 0.0 1.6 0.00 0.00 0.00 91 1013.6
20260508094500 14 146 0.0 1.6 0.00 0.00 0.00 90 1013.9
20260508093956 14 146 0.0 0.0 0.00 0.00 0.00 90 1013.8
20260508093454 14 146 0.0 1.6 0.00 0.00 0.00 90 1014.0
20260508092952 15 33 0.0 3.2 0.00 0.00 0.00 88 1013.9
20260508092449 15 33 0.0 1.6 0.00 0.00 0.00 87 1013.8
20260508091948 15 252 0.0 1.6 0.00 0.00 0.00 87 1013.8
20260508091444 15 252 0.0 0.0 0.00 0.00 0.00 86 1014.1